Regional Weather Roundup
Issued by NWS Glasgow, MT

Home | Current Version | Previous Version | Text Only | Print | Product List | Glossary On
Versions: 1 2 3 4 5 6 7 8 9 10 11 12 13 14 15 16 17 18 19 20 21 22 23 24 25 26 27 28 29 30 31 32 33 34 35 36 37 38 39 40 41 42 43 44 45 46 47 48 49 50
000
ASUS45 KGGW 021115
RWRGGW
HOURLY WEATHER ROUNDUP FOR NORTHEAST MONTANA
NATIONAL WEATHER SERVICE GLASGOW MONTANA
500 AM MDT TUE SEP 02 2014

NOTE: "FAIR" INDICATES FEW OR NO CLOUDS BELOW 12,000 FEET WITH NO
SIGNIFICANT WEATHER AND/OR OBSTRUCTIONS TO VISISBILITY.

NORTHEAST MONTANA


CITY           SKY/WX    TMP DP  RH WIND       PRES   REMARKS
GLASGOW        CLEAR     53  44  71 W7        29.79S
PLENTYWOOD       N/A     51  44  77 SW2         N/A
WOLF POINT     MOCLDY    55  47  74 W6        29.79S
JORDAN           N/A     51  44  77 W6        29.85S
WINNETT          N/A     44  41  89 SW2         N/A
SIDNEY         CLEAR     50  48  93 S9        29.81R
GLENDIVE       PTCLDY    50  45  81 SW9       29.84S
MALTA            N/A     50  43  77 SW5         N/A
SCOBEY           N/A     52  41  66 CALM      29.76S

FORT PECK REPORTS


CITY           SKY/WX    TMP DP  RH WIND       PRES   REMARKS
FORT PECK        N/A     57  41  55 W14         N/A
THE PINES        N/A     57  39  51 SW7         N/A

SOUTHEAST MONTANA


CITY           SKY/WX    TMP DP  RH WIND       PRES   REMARKS
BILLINGS       PTCLDY    53  42  66 SW12      29.91F
MILES CITY     CLEAR     50  32  50 CALM      29.87S
BAKER          CLEAR     55  42  61 SW12      29.88F
LIVINGSTON     CLEAR     48  37  65 NW10      29.97S

CENTRAL MONTANA


CITY           SKY/WX    TMP DP  RH WIND       PRES   REMARKS
HAVRE          PTCLDY    50  40  68 SW9       29.84S
LEWISTOWN      MOCLDY    46  38  73 E3        29.93S
GREAT FALLS    CLOUDY    50  39  66 SW9       29.90F
CUT BANK       MOCLDY    51  38  60 SW12      29.87F
HELENA         CLOUDY    60  38  43 W10       29.95F
BUTTE          CLEAR     37  33  85 SE3       30.05F
BOZEMAN        PTCLDY    42  38  85 E3        29.99S

WESTERN MONTANA


CITY           SKY/WX    TMP DP  RH WIND       PRES   REMARKS
MISSOULA       CLEAR     42  38  85 CALM      29.99F
KALISPELL      NOT AVBL

NORTH DAKOTA


CITY           SKY/WX    TMP DP  RH WIND       PRES   REMARKS
WILLISTON      PTCLDY    53  49  86 SW7       29.77S
DICKINSON      CLEAR     53  44  71 SW14      29.82F
MINOT          CLOUDY    55  51  86 CALM      29.78F
BISMARCK       MOCLDY    50  48  93 CALM      29.84F

SOUTHERN SASKATCHEWAN


CITY           SKY/WX    TMP DP  RH WIND       PRES   REMARKS
REGINA         MOCLDY    48  46  93 S5        29.70S
ESTEVAN        PTCLDY    50  46  87 SE6       29.73S
SWIFT CURRENT  CLEAR     45  43  93 W9        29.75R



USA.gov is the U.S. government's official web portal to all federal, state and local government web resources and services.